SL-8 R/B

Satellite information

Favourite Embed

Satellite Type and Status

ROCKET BODYIN ORBIT

Key statistics

Satellite SL-8 R/B at a glance.

Uptime

10363

Days in orbit

Revolutions

≈ 13.7

Per day

Orbit

LEO

Low Earth Orbit

Inclination

82.9

Latest

Satellite identification and parameters

Extended collection of information and parameters for SL-8 R/B.

Object identification

Identified? True

Debris? False

Object name: SL-8 R/B

International designator: 1997-017B

Object number (NORAD): 24773

Object ID (CCSDS): 24773

Country: COMMONWEALTH OF INDEPENDENT STATES (CIS)

Current information (Y/N): Y

RCS size: LARGE

Orbital parameters

Period: 104.808 minutes

Inclination: 82.9226 deg

SMA: 7363.613 km

Apoapsis: 1002.52 km

Periapsis: 968.435 km

RAAN: 311.9215 deg

Eccentricy: 0.00231444

Argument of periapsis: 244.3712 deg

Mean anomaly: 289.3205 deg

Mean motion: 13.73935502 rev/day

Mean motion (dot): 0.00000101 rev/day2

B* drag term: 0.00009154248 1/REarth

Two-line elements (TLE)

Creation date: Aug. 31, 2025, 2:26 a.m.

Reference frame: TEME

Reference center: EARTH

Epoch: Aug. 30, 2025, 11:06 p.m. UTC

TLE line 0: 0 SL-8 R/B

TLE line 1: 1 24773U 97017B 25242.96314282 .00000101 00000-0 91542-4 0 9994

TLE line 2: 2 24773 82.9226 311.9215 0023144 244.3712 289.3205 13.73935502422053

Live tracking on map

Real-time ground track for satellite SL-8 R/B.

In-orbit conjunctions

A list of the most updated potential collisions computed for object SL-8 R/B.

Target Orbit TCA Probability of collision Miss distance Type
FENGYUN 1C DEB SSO 2024-12-31 18:18:17 0.0002550719 171.0 (m) DEBRIS
SL-8 R/B LEO 2024-10-17 07:33:15 0.002790768 70.0 (m) ROCKET BODY

Associated space launch

Navigation satellite providing location information for the Tsiklon-B navigation system

SL-8 R/B was lifted into orbit during the mission ‘Kosmos-3M | Parus 88’, on board a Kosmos-3M space rocket.

The launch took place on April 17, 1997, 1:03 p.m. from 132/1 (132L).

For more information about the launch, click the button.

Launch to space Kosmos-3M | Parus 88
Kosmos-3M | Parus 88

Agency: N/A

Status: Launch Successful

Launch date: April 17, 1997, 1:03 p.m. UTC

Rocket: Kosmos-3M

Launch pad: 132/1 (132L)

Location: Plesetsk Cosmodrome, Russian Federation

...

Latest news about this satellite

There are no fresh news available about this satellite. Check back as we update our databases every day.


Newsletter sign-up

Weekly statistics, charts and insights to help you stay on top of the space industry.